Regional Weather Roundup
Issued by NWS Charleston, WV

Home | Current Version | Previous Version | Graphics & Text | Print | Product List | Glossary On
Versions: 1 2 3 4 5 6 7 8 9 10 11 12 13 14 15 16 17 18 19 20 21 22 23 24 25 26 27
000
ASUS41 KRLX 161210
RWRRLX
West Virginia Regional Weather Roundup
National Weather Service Charleston WV
800 AM EDT WED APR 16 2014

Note: "fair" indicates few or no clouds below 12,000 feet with no
significant weather and/or obstructions to visibility.

WVZ003-161300-
Northern Panhandle of West Virginia

CITY           SKY/WX    TMP DP  RH WIND       PRES   REMARKS
WHEELING       SUNNY     26  20  77 CALM      30.39R
$$

WVZ009-161300-
Northwest West Virginia

CITY           SKY/WX    TMP DP  RH WIND       PRES   REMARKS
PARKERSBURG    SUNNY     28  23  81 CALM      30.44R
$$

WVZ006-161300-
Western West Virginia

CITY           SKY/WX    TMP DP  RH WIND       PRES   REMARKS
HUNTINGTON     SUNNY     27  23  85 NE3       30.40R
$$

WVZ015-161300-
West Central West Virginia

CITY           SKY/WX    TMP DP  RH WIND       PRES   REMARKS
CHARLESTON     MOSUNNY   27  24  89 CALM      30.40R
$$

WVZ031-161300-
North Central West Virginia

CITY           SKY/WX    TMP DP  RH WIND       PRES   REMARKS
CLARKSBURG     SUNNY     28  18  66 W3        30.40R
MORGANTOWN     MOSUNNY   28  20  71 N3        30.40R
$$

WVZ035-042-045-161300-
South Central West Virginia

CITY           SKY/WX    TMP DP  RH WIND       PRES   REMARKS
BECKLEY        SUNNY     24  13  62 N8        30.29R
BLUEFIELD      SUNNY     25  13  60 NW5       30.28R
LEWISBURG      MOSUNNY   25  12  58 N8        30.29R
$$

WVZ047-161300-
Northern Mountains of West Virginia

CITY           SKY/WX    TMP DP  RH WIND       PRES   REMARKS
ELKINS         CLOUDY    25  16  68 CALM      30.35R
$$

WVZ052-161300-
Eastern Panhandle of West Virginia

CITY           SKY/WX    TMP DP  RH WIND       PRES   REMARKS
MARTINSBURG    SUNNY     31  11  43 N16       30.37R
PETERSBURG     MOSUNNY   35  22  60 NW6       30.39R
$$



USA.gov is the U.S. government's official web portal to all federal, state and local government web resources and services.